Flag Weather past 2 weeks in Bradford, England, United Kingdom

Now
39 °F

Passing clouds.


Feels Like: 34 °F
Forecast: N/A
Wind: 7 mph from Northeast

Location: Leeds And Bradford

Current Time: Nov 25, 2014 at 11:37:48 PM

Latest Report: Nov 25, 2014 at 11:20 PM


Visibility: N/A

Pressure: 30.09 "Hg

Humidity: 93%

Dew point: 37 °F

Location of BradfordLocation

Historic Weather in Bradford — Graph

°F

Bradford temperature yesterday

Maximum temperature yesterday: 46 °F (at 2:20 PM)
Minimum temperature yesterday: 37 °F (at 3:20 AM)
Average temperature yesterday: 41 °F

Past Weeks' High & Low Weather Summary

 TemperatureHumidityPressure
High52 °F (Nov 14, 2:20 PM)100% (Nov 10, 10:20 PM)30.30 "Hg (Nov 10, 10:20 PM)
Low36 °F (Nov 15, 1:50 AM)81% (Nov 23, 2:50 PM)29.27 "Hg (Nov 12, 1:50 AM)
Average45 °F97%29.81 "Hg
* Reported Nov 10 10:20 PM — Nov 25 10:20 PM, Bradford, Weather by CustomWeather, © 2014

Note: Actual official high and low records may vary slightly from our data, if they occured in-between our weather recording intervals... More about our weather records

Advertising

Bradford weather history for previous 24 hours

 ConditionsComfort  
Time TempWeatherWind HumidityBarometerVisibility
10:20 PM
Nov 25
39 °FPassing clouds.5 mph93%30.12 "HgN/A
9:50 PM39 °FPassing clouds.5 mph93%30.12 "HgN/A
9:20 PM39 °FLight rain. Passing clouds.5 mph93%30.12 "HgN/A
8:50 PM39 °FLight rain. Passing clouds.3 mph87%30.12 "HgN/A
8:20 PM37 °FLight rain. Passing clouds.2 mph93%30.15 "Hg6 mi
7:50 PM37 °FPassing clouds.2 mph100%30.15 "Hg6 mi
7:20 PM37 °FSleet. Fog.5 mph100%30.15 "Hg6 mi
6:50 PM37 °FSleet. Fog.3 mph100%30.15 "Hg6 mi
6:20 PM37 °FSleet. Fog.5 mph100%30.15 "Hg5 mi
5:50 PM36 °FSleet. Fog.2 mph100%30.15 "Hg3 mi
5:20 PM36 °FFog.3 mph100%30.15 "Hg2 mi
4:50 PM36 °FFog.3 mph100%30.15 "Hg1 mi
4:20 PM37 °FSleet. Fog.5 mph100%30.15 "Hg2 mi
3:50 PM39 °FSleet. Fog.5 mph93%30.15 "Hg4 mi
3:20 PM39 °FClear.3 mph100%30.18 "Hg5 mi
2:50 PM41 °FClear.3 mph93%30.18 "Hg5 mi
2:20 PM41 °FSunny.2 mph93%30.18 "Hg10 mi
1:50 PM43 °FSunny.3 mph87%30.18 "Hg10 mi
1:20 PM43 °FSunny.2 mph87%30.18 "Hg10 mi
12:50 PM43 °FSunny.5 mph87%30.21 "Hg10 mi
12:20 PM43 °FPassing clouds.5 mph87%30.21 "HgN/A
11:50 AM43 °FSunny.3 mph87%30.21 "Hg10 mi
11:20 AM43 °FSunny.2 mph87%30.24 "Hg10 mi
10:50 AM43 °FSunny.1 mph87%30.24 "Hg10 mi
10:20 AM39 °FSunny.1 mph100%30.24 "Hg10 mi
9:50 AM37 °FSunny.2 mph93%30.24 "Hg10 mi
9:20 AM36 °FPassing clouds.3 mph100%30.24 "HgN/A
8:50 AM36 °FPassing clouds.2 mph100%30.24 "HgN/A
8:20 AM37 °FPassing clouds.1 mph93%30.24 "HgN/A
7:50 AM36 °FPassing clouds.1 mph100%30.24 "HgN/A
7:20 AM37 °FPassing clouds.2 mph100%30.24 "HgN/A
6:50 AM36 °FPassing clouds.2 mph100%30.24 "HgN/A
6:20 AM36 °FPassing clouds.2 mph100%30.24 "HgN/A
5:50 AM36 °FPassing clouds.1 mph93%30.24 "HgN/A
5:20 AM37 °FClear.1 mph93%30.24 "Hg10 mi
4:50 AM36 °FClear.No wind100%30.24 "Hg10 mi
4:20 AM37 °FClear.No wind93%30.24 "Hg10 mi
3:20 AM37 °FClear.2 mph93%30.24 "Hg10 mi
2:50 AM37 °FClear.2 mph100%30.24 "Hg10 mi
2:20 AM37 °FClear.2 mph100%30.27 "Hg10 mi
1:50 AM37 °FClear.2 mph93%30.27 "Hg10 mi
1:20 AM37 °FClear.5 mph93%30.27 "Hg10 mi
12:50 AM39 °FClear.3 mph93%30.27 "Hg10 mi
12:20 AM39 °FClear.3 mph93%30.27 "Hg10 mi
11:50 PM
Nov 24
39 °FClear.7 mph93%30.27 "Hg10 mi
11:20 PM39 °FClear.8 mph93%30.27 "Hg10 mi
Weather by CustomWeather, © 2014

See weather overviewHow to use our weather pages